Year,Month,Day,Hour,Minute,Value (Times are PST for temperature in C)
2021,06,29,00,00,16.30
2021,06,29,00,01,16.30
2021,06,29,00,02,16.30
2021,06,29,00,03,16.30
2021,06,29,00,04,16.30
2021,06,29,00,05,16.20
2021,06,29,00,06,16.20
2021,06,29,00,07,16.20
2021,06,29,00,08,16.20
2021,06,29,00,09,16.20
2021,06,29,00,10,16.20
2021,06,29,00,11,16.20
2021,06,29,00,12,16.30
2021,06,29,00,13,16.30
2021,06,29,00,14,16.30
2021,06,29,00,15,16.30
2021,06,29,00,16,16.30
2021,06,29,00,17,16.40
2021,06,29,00,18,16.40
2021,06,29,00,19,16.40
2021,06,29,00,20,16.40
2021,06,29,00,21,16.40
2021,06,29,00,22,16.30
2021,06,29,00,23,16.20
2021,06,29,00,24,16.00
2021,06,29,00,25,15.80
2021,06,29,00,26,15.70
2021,06,29,00,27,15.50
2021,06,29,00,28,15.40
2021,06,29,00,29,15.30
2021,06,29,00,30,15.20
2021,06,29,00,31,15.20
2021,06,29,00,32,15.10
2021,06,29,00,33,15.00
2021,06,29,00,34,14.90
2021,06,29,00,35,14.80
2021,06,29,00,36,14.80
2021,06,29,00,37,14.70
2021,06,29,00,38,14.60
2021,06,29,00,39,14.60
2021,06,29,00,40,14.60
2021,06,29,00,41,14.60
2021,06,29,00,42,14.60
2021,06,29,00,43,14.60
2021,06,29,00,44,14.60
2021,06,29,00,45,14.70
2021,06,29,00,46,14.70
2021,06,29,00,47,14.70
2021,06,29,00,48,14.80
2021,06,29,00,49,14.80
2021,06,29,00,50,14.90
2021,06,29,00,51,14.90
2021,06,29,00,52,15.00
2021,06,29,00,53,15.00
2021,06,29,00,54,15.00
2021,06,29,00,55,15.10
2021,06,29,00,56,15.10
2021,06,29,00,57,15.10
2021,06,29,00,58,15.10
2021,06,29,00,59,15.10
2021,06,29,01,00,15.10
2021,06,29,01,01,15.10
2021,06,29,01,02,15.10
2021,06,29,01,03,15.10
2021,06,29,01,04,15.10
2021,06,29,01,05,15.10
2021,06,29,01,06,15.10
2021,06,29,01,07,15.20
2021,06,29,01,08,15.20
2021,06,29,01,09,15.20
2021,06,29,01,10,15.20
2021,06,29,01,11,15.30
2021,06,29,01,12,15.40
2021,06,29,01,13,15.50
2021,06,29,01,14,15.60
2021,06,29,01,15,15.70
2021,06,29,01,16,15.80
2021,06,29,01,17,15.80
2021,06,29,01,18,15.90
2021,06,29,01,19,15.90
2021,06,29,01,20,16.00
2021,06,29,01,21,16.00
2021,06,29,01,22,16.10
2021,06,29,01,23,16.10
2021,06,29,01,24,16.00
2021,06,29,01,25,15.90
2021,06,29,01,26,15.90
2021,06,29,01,27,15.80
2021,06,29,01,28,15.70
2021,06,29,01,29,15.60
2021,06,29,01,30,15.50
2021,06,29,01,31,15.50
2021,06,29,01,32,15.40
2021,06,29,01,33,15.40
2021,06,29,01,34,15.50
2021,06,29,01,35,15.50
2021,06,29,01,36,15.50
2021,06,29,01,37,15.40
2021,06,29,01,38,15.30
2021,06,29,01,39,15.20
2021,06,29,01,40,15.10
2021,06,29,01,41,15.10
2021,06,29,01,42,15.00
2021,06,29,01,43,14.90
2021,06,29,01,44,14.90
2021,06,29,01,45,14.80
2021,06,29,01,46,14.80
2021,06,29,01,47,14.70
2021,06,29,01,48,14.70
2021,06,29,01,49,14.70
2021,06,29,01,50,14.70
2021,06,29,01,51,14.80
2021,06,29,01,52,14.80
2021,06,29,01,53,14.80
2021,06,29,01,54,14.80
2021,06,29,01,55,14.80
2021,06,29,01,56,14.70
2021,06,29,01,57,14.70
2021,06,29,01,58,14.60
2021,06,29,01,59,14.60
2021,06,29,02,00,14.60
2021,06,29,02,01,14.60
2021,06,29,02,02,14.50
2021,06,29,02,03,14.50
2021,06,29,02,04,14.50
2021,06,29,02,05,14.50
2021,06,29,02,06,14.60
2021,06,29,02,07,14.60
2021,06,29,02,08,14.60
2021,06,29,02,09,14.60
2021,06,29,02,10,14.60
2021,06,29,02,11,14.60
2021,06,29,02,12,14.60
2021,06,29,02,13,14.60
2021,06,29,02,14,14.60
2021,06,29,02,15,14.60
2021,06,29,02,16,14.60
2021,06,29,02,17,14.60
2021,06,29,02,18,14.60
2021,06,29,02,19,14.70
2021,06,29,02,20,14.70
2021,06,29,02,21,14.70
2021,06,29,02,22,14.70
2021,06,29,02,23,14.70
2021,06,29,02,24,14.70
2021,06,29,02,25,14.70
2021,06,29,02,26,14.70
2021,06,29,02,27,14.70
2021,06,29,02,28,14.70
2021,06,29,02,29,14.80
2021,06,29,02,30,14.80
2021,06,29,02,31,14.80
2021,06,29,02,32,14.80
2021,06,29,02,33,14.80
2021,06,29,02,34,14.90
2021,06,29,02,35,14.90
2021,06,29,02,36,15.00
2021,06,29,02,37,15.00
2021,06,29,02,38,15.10
2021,06,29,02,39,15.10
2021,06,29,02,40,15.20
2021,06,29,02,41,15.30
2021,06,29,02,42,15.30
2021,06,29,02,43,15.40
2021,06,29,02,44,15.50
2021,06,29,02,45,15.60
2021,06,29,02,46,15.60
2021,06,29,02,47,15.60
2021,06,29,02,48,15.50
2021,06,29,02,49,15.40
2021,06,29,02,50,15.30
2021,06,29,02,51,15.30
2021,06,29,02,52,15.30
2021,06,29,02,53,15.20
2021,06,29,02,54,15.20
2021,06,29,02,55,15.10
2021,06,29,02,56,15.00
2021,06,29,02,57,15.00
2021,06,29,02,58,15.00
2021,06,29,02,59,14.90
2021,06,29,03,00,14.90
2021,06,29,03,01,14.90
2021,06,29,03,02,14.90
2021,06,29,03,03,14.90
2021,06,29,03,04,14.90
2021,06,29,03,05,14.80
2021,06,29,03,06,14.80
2021,06,29,03,07,14.80
2021,06,29,03,08,14.80
2021,06,29,03,09,14.80
2021,06,29,03,10,14.80
2021,06,29,03,11,14.70
2021,06,29,03,12,14.70
2021,06,29,03,13,14.70
2021,06,29,03,14,14.70
2021,06,29,03,15,14.70
2021,06,29,03,16,14.70
2021,06,29,03,17,14.70
2021,06,29,03,18,14.70
2021,06,29,03,19,14.70
2021,06,29,03,20,14.80
2021,06,29,03,21,14.80
2021,06,29,03,22,14.90
2021,06,29,03,23,14.90
2021,06,29,03,24,15.00
2021,06,29,03,25,15.10
2021,06,29,03,26,15.20
2021,06,29,03,27,15.30
2021,06,29,03,28,15.20
2021,06,29,03,29,15.10
2021,06,29,03,30,14.90
2021,06,29,03,31,14.80
2021,06,29,03,32,14.60
2021,06,29,03,33,14.50
2021,06,29,03,34,14.30
2021,06,29,03,35,14.20
2021,06,29,03,36,14.20
2021,06,29,03,37,14.10
2021,06,29,03,38,14.10
2021,06,29,03,39,14.10
2021,06,29,03,40,14.20
2021,06,29,03,41,14.20
2021,06,29,03,42,14.30
2021,06,29,03,43,14.30
2021,06,29,03,44,14.20
2021,06,29,03,45,14.20
2021,06,29,03,46,14.30
2021,06,29,03,47,14.30
2021,06,29,03,48,14.40
2021,06,29,03,49,14.40
2021,06,29,03,50,14.50
2021,06,29,03,51,14.60
2021,06,29,03,52,14.60
2021,06,29,03,53,14.70
2021,06,29,03,54,14.70
2021,06,29,03,55,14.70
2021,06,29,03,56,14.70
2021,06,29,03,57,14.70
2021,06,29,03,58,14.80
2021,06,29,03,59,14.80
2021,06,29,04,00,14.80
2021,06,29,04,01,14.80
2021,06,29,04,02,14.80
2021,06,29,04,03,14.80
2021,06,29,04,04,14.80
2021,06,29,04,05,14.80
2021,06,29,04,06,14.90
2021,06,29,04,07,14.90
2021,06,29,04,08,14.90
2021,06,29,04,09,14.90
2021,06,29,04,10,14.90
2021,06,29,04,11,14.90
2021,06,29,04,12,14.90
2021,06,29,04,13,14.90
2021,06,29,04,14,15.00
2021,06,29,04,15,15.00
2021,06,29,04,16,15.00
2021,06,29,04,17,15.00
2021,06,29,04,18,15.10
2021,06,29,04,19,15.10
2021,06,29,04,20,15.10
2021,06,29,04,21,15.10
2021,06,29,04,22,15.10
2021,06,29,04,23,15.10
2021,06,29,04,24,15.20
2021,06,29,04,25,15.20
2021,06,29,04,26,15.20
2021,06,29,04,27,15.20
2021,06,29,04,28,15.20
2021,06,29,04,29,15.20
2021,06,29,04,30,15.20
2021,06,29,04,31,15.20
2021,06,29,04,32,15.20
2021,06,29,04,33,15.20
2021,06,29,04,34,15.30
2021,06,29,04,35,15.30
2021,06,29,04,36,15.30
2021,06,29,04,37,15.30
2021,06,29,04,38,15.30
2021,06,29,04,39,15.30
2021,06,29,04,40,15.30
2021,06,29,04,41,15.30
2021,06,29,04,42,15.30
2021,06,29,04,43,15.30
2021,06,29,04,44,15.40
2021,06,29,04,45,15.40
2021,06,29,04,46,15.50
2021,06,29,04,47,15.50
2021,06,29,04,48,15.60
2021,06,29,04,49,15.60
2021,06,29,04,50,15.70
2021,06,29,04,51,15.70
2021,06,29,04,52,15.80
2021,06,29,04,53,15.80
2021,06,29,04,54,15.80
2021,06,29,04,55,15.80
2021,06,29,04,56,15.80
2021,06,29,04,57,15.80
2021,06,29,04,58,15.80
2021,06,29,04,59,15.80
2021,06,29,05,00,15.70
2021,06,29,05,01,15.70
2021,06,29,05,02,15.60
2021,06,29,05,03,15.60
2021,06,29,05,04,15.60
2021,06,29,05,05,15.60
2021,06,29,05,06,15.60
2021,06,29,05,07,15.60
2021,06,29,05,08,15.60
2021,06,29,05,09,15.70
2021,06,29,05,10,15.70
2021,06,29,05,11,15.70
2021,06,29,05,12,15.70
2021,06,29,05,13,15.80
2021,06,29,05,14,15.80
2021,06,29,05,15,15.80
2021,06,29,05,16,15.80
2021,06,29,05,17,15.80
2021,06,29,05,18,15.80
2021,06,29,05,19,15.80
2021,06,29,05,20,15.80
2021,06,29,05,21,15.90
2021,06,29,05,22,15.80
2021,06,29,05,23,15.80
2021,06,29,05,24,15.80
2021,06,29,05,25,15.80
2021,06,29,05,26,15.80
2021,06,29,05,27,15.80
2021,06,29,05,28,15.80
2021,06,29,05,29,15.80
2021,06,29,05,30,15.80
2021,06,29,05,31,15.80
2021,06,29,05,32,15.80
2021,06,29,05,33,15.80
2021,06,29,05,34,15.80
2021,06,29,05,35,15.70
2021,06,29,05,36,15.70
2021,06,29,05,37,15.70
2021,06,29,05,38,15.70
2021,06,29,05,39,15.70
2021,06,29,05,40,15.70
2021,06,29,05,41,15.70
2021,06,29,05,42,15.70
2021,06,29,05,43,15.70
2021,06,29,05,44,15.70
2021,06,29,05,45,15.70
2021,06,29,05,46,15.70
2021,06,29,05,47,15.70
2021,06,29,05,48,15.70
2021,06,29,05,49,15.70
2021,06,29,05,50,15.70
2021,06,29,05,51,15.70
2021,06,29,05,52,15.80
2021,06,29,05,53,15.80
2021,06,29,05,54,15.80
2021,06,29,05,55,15.80
2021,06,29,05,56,15.80
2021,06,29,05,57,15.80
2021,06,29,05,58,15.80
2021,06,29,05,59,15.80
2021,06,29,06,00,15.80
2021,06,29,06,01,15.80
2021,06,29,06,02,15.80
2021,06,29,06,03,15.80
2021,06,29,06,04,15.90
2021,06,29,06,05,15.90
2021,06,29,06,06,15.90
2021,06,29,06,07,15.90
2021,06,29,06,08,15.90
2021,06,29,06,09,15.90
2021,06,29,06,10,15.90
2021,06,29,06,11,15.90
2021,06,29,06,12,15.90
2021,06,29,06,13,15.90
2021,06,29,06,14,15.90
2021,06,29,06,15,15.90
2021,06,29,06,16,15.90
2021,06,29,06,17,15.90
2021,06,29,06,18,16.00
2021,06,29,06,19,15.90
2021,06,29,06,20,15.90
2021,06,29,06,21,15.90
2021,06,29,06,22,15.90
2021,06,29,06,23,15.90
2021,06,29,06,24,15.90
2021,06,29,06,25,15.90
2021,06,29,06,26,15.90
2021,06,29,06,27,15.80
2021,06,29,06,28,15.80
2021,06,29,06,29,15.70
2021,06,29,06,30,15.70
2021,06,29,06,31,15.60
2021,06,29,06,32,15.50
2021,06,29,06,33,15.40
2021,06,29,06,34,15.40
2021,06,29,06,35,15.30
2021,06,29,06,36,15.30
2021,06,29,06,37,15.30
2021,06,29,06,38,15.30
2021,06,29,06,39,15.30
2021,06,29,06,40,15.30
2021,06,29,06,41,15.30
2021,06,29,06,42,15.30
2021,06,29,06,43,15.30
2021,06,29,06,44,15.30
2021,06,29,06,45,15.30
2021,06,29,06,46,15.30
2021,06,29,06,47,15.30
2021,06,29,06,48,15.30
2021,06,29,06,49,15.20
2021,06,29,06,50,15.20
2021,06,29,06,51,15.20
2021,06,29,06,52,15.20
2021,06,29,06,53,15.20
2021,06,29,06,54,15.20
2021,06,29,06,55,15.20
2021,06,29,06,56,15.10
2021,06,29,06,57,15.10
2021,06,29,06,58,15.10
2021,06,29,06,59,15.10
2021,06,29,07,00,15.10
2021,06,29,07,01,15.10
2021,06,29,07,02,15.10
2021,06,29,07,03,15.10
2021,06,29,07,04,15.10
2021,06,29,07,05,15.10
2021,06,29,07,06,15.20
2021,06,29,07,07,15.20
2021,06,29,07,08,15.20
2021,06,29,07,09,15.20
2021,06,29,07,10,15.20
2021,06,29,07,11,15.20
2021,06,29,07,12,15.30
2021,06,29,07,13,15.30
2021,06,29,07,14,15.30
2021,06,29,07,15,15.30
2021,06,29,07,16,15.40
2021,06,29,07,17,15.40
2021,06,29,07,18,15.40
2021,06,29,07,19,15.40
2021,06,29,07,20,15.40
2021,06,29,07,21,15.40
2021,06,29,07,22,15.40
2021,06,29,07,23,15.40
2021,06,29,07,24,15.40
2021,06,29,07,25,15.30
2021,06,29,07,26,15.30
2021,06,29,07,27,15.30
2021,06,29,07,28,15.20
2021,06,29,07,29,15.20
2021,06,29,07,30,15.10
2021,06,29,07,31,15.10
2021,06,29,07,32,15.10
2021,06,29,07,33,15.00
2021,06,29,07,34,15.00
2021,06,29,07,35,15.00
2021,06,29,07,36,15.00
2021,06,29,07,37,15.00
2021,06,29,07,38,15.00
2021,06,29,07,39,15.00
2021,06,29,07,40,15.00
2021,06,29,07,41,15.00
2021,06,29,07,42,15.00
2021,06,29,07,43,15.00
2021,06,29,07,44,15.10
2021,06,29,07,45,15.00
2021,06,29,07,46,15.00
2021,06,29,07,47,15.10
2021,06,29,07,48,15.10
2021,06,29,07,49,15.10
2021,06,29,07,50,15.10
2021,06,29,07,51,15.10
2021,06,29,07,52,15.10
2021,06,29,07,53,15.10
2021,06,29,07,54,15.10
2021,06,29,07,55,15.10
2021,06,29,07,56,15.10
2021,06,29,07,57,15.10
2021,06,29,07,58,15.10
2021,06,29,07,59,15.10
2021,06,29,08,00,15.10
2021,06,29,08,01,15.10
2021,06,29,08,02,15.10
2021,06,29,08,03,15.10
2021,06,29,08,04,15.10
2021,06,29,08,05,15.10
2021,06,29,08,06,15.20
2021,06,29,08,07,15.20
2021,06,29,08,08,15.20
2021,06,29,08,09,15.20
2021,06,29,08,10,15.20
2021,06,29,08,11,15.20
2021,06,29,08,12,15.30
2021,06,29,08,13,15.30
2021,06,29,08,14,15.30
2021,06,29,08,15,15.30
2021,06,29,08,16,15.40
2021,06,29,08,17,15.40
2021,06,29,08,18,15.40
2021,06,29,08,19,15.50
2021,06,29,08,20,15.50
2021,06,29,08,21,15.60
2021,06,29,08,22,15.60
2021,06,29,08,23,15.60
2021,06,29,08,24,15.70
2021,06,29,08,25,15.70
2021,06,29,08,26,15.70
2021,06,29,08,27,15.70
2021,06,29,08,28,15.70
2021,06,29,08,29,15.80
2021,06,29,08,30,15.80
2021,06,29,08,31,15.80
2021,06,29,08,32,15.80
2021,06,29,08,33,15.80
2021,06,29,08,34,15.80
2021,06,29,08,35,15.80
2021,06,29,08,36,15.80
2021,06,29,08,37,15.80
2021,06,29,08,38,15.80
2021,06,29,08,39,15.80
2021,06,29,08,40,15.80
2021,06,29,08,41,15.80
2021,06,29,08,42,15.80
2021,06,29,08,43,15.80
2021,06,29,08,44,15.80
2021,06,29,08,45,15.80
2021,06,29,08,46,15.80
2021,06,29,08,47,15.80
2021,06,29,08,48,15.90
2021,06,29,08,49,15.90
2021,06,29,08,50,16.00
2021,06,29,08,51,16.10
2021,06,29,08,52,16.20
2021,06,29,08,53,16.20
2021,06,29,08,54,16.30
2021,06,29,08,55,16.40
2021,06,29,08,56,16.40
2021,06,29,08,57,16.50
2021,06,29,08,58,16.50
2021,06,29,08,59,16.40
2021,06,29,09,00,16.20
2021,06,29,09,01,15.90
2021,06,29,09,02,15.50
2021,06,29,09,03,15.20
2021,06,29,09,04,14.90
2021,06,29,09,05,14.80
2021,06,29,09,06,14.70
2021,06,29,09,07,14.60
2021,06,29,09,08,14.60
2021,06,29,09,09,14.60
2021,06,29,09,10,14.60
2021,06,29,09,11,14.50
2021,06,29,09,12,14.50
2021,06,29,09,13,14.40
2021,06,29,09,14,14.30
2021,06,29,09,15,14.30
2021,06,29,09,16,14.30
2021,06,29,09,17,14.20
2021,06,29,09,18,14.20
2021,06,29,09,19,14.20
2021,06,29,09,20,14.20
2021,06,29,09,21,14.20
2021,06,29,09,22,14.20
2021,06,29,09,23,14.30
2021,06,29,09,24,14.30
2021,06,29,09,25,14.30
2021,06,29,09,26,14.30
2021,06,29,09,27,14.30
2021,06,29,09,28,14.40
2021,06,29,09,29,14.40
2021,06,29,09,30,14.40
2021,06,29,09,31,14.40
2021,06,29,09,32,14.40
2021,06,29,09,33,14.40
2021,06,29,09,34,14.40
2021,06,29,09,35,14.40
2021,06,29,09,36,14.40
2021,06,29,09,37,14.30
2021,06,29,09,38,14.30
2021,06,29,09,39,14.30
2021,06,29,09,40,14.30
2021,06,29,09,41,14.30
2021,06,29,09,42,14.30
2021,06,29,09,43,14.30
2021,06,29,09,44,14.30
2021,06,29,09,45,14.30
2021,06,29,09,46,14.30
2021,06,29,09,47,14.30
2021,06,29,09,48,14.30
2021,06,29,09,49,14.30
2021,06,29,09,50,14.30
2021,06,29,09,51,14.20
2021,06,29,09,52,14.20
2021,06,29,09,53,14.20
2021,06,29,09,54,14.10
2021,06,29,09,55,14.00
2021,06,29,09,56,14.00
2021,06,29,09,57,13.90
2021,06,29,09,58,13.90
2021,06,29,09,59,13.90
2021,06,29,10,00,13.90
2021,06,29,10,01,13.80
2021,06,29,10,02,13.80
2021,06,29,10,03,13.80
2021,06,29,10,04,13.80
2021,06,29,10,05,13.80
2021,06,29,10,06,13.70
2021,06,29,10,07,13.70
2021,06,29,10,08,13.60
2021,06,29,10,09,13.60
2021,06,29,10,10,13.50
2021,06,29,10,11,13.40
2021,06,29,10,12,13.40
2021,06,29,10,13,13.40
2021,06,29,10,14,13.40
2021,06,29,10,15,13.40
2021,06,29,10,16,13.40
2021,06,29,10,17,13.50
2021,06,29,10,18,13.50
2021,06,29,10,19,13.50
2021,06,29,10,20,13.60
2021,06,29,10,21,13.60
2021,06,29,10,22,13.70
2021,06,29,10,23,13.70
2021,06,29,10,24,13.70
2021,06,29,10,25,13.70
2021,06,29,10,26,13.70
2021,06,29,10,27,13.70
2021,06,29,10,28,13.70
2021,06,29,10,29,13.70
2021,06,29,10,30,13.70
2021,06,29,10,31,13.60
2021,06,29,10,32,13.60
2021,06,29,10,33,13.60
2021,06,29,10,34,13.50
2021,06,29,10,35,13.50
2021,06,29,10,36,13.50
2021,06,29,10,37,13.40
2021,06,29,10,38,13.40
2021,06,29,10,39,13.40
2021,06,29,10,40,13.40
2021,06,29,10,41,13.30
2021,06,29,10,42,13.30
2021,06,29,10,43,13.40
2021,06,29,10,44,13.40
2021,06,29,10,45,13.40
2021,06,29,10,46,13.50
2021,06,29,10,47,13.50
2021,06,29,10,48,13.60
2021,06,29,10,49,13.60
2021,06,29,10,50,13.60
2021,06,29,10,51,13.60
2021,06,29,10,52,13.60
2021,06,29,10,53,13.60
2021,06,29,10,54,13.60
2021,06,29,10,55,13.70
2021,06,29,10,56,13.70
2021,06,29,10,57,13.70
2021,06,29,10,58,13.70
2021,06,29,10,59,13.80
2021,06,29,11,00,13.80
2021,06,29,11,01,13.80
2021,06,29,11,02,13.80
2021,06,29,11,03,13.80
2021,06,29,11,04,13.80
2021,06,29,11,05,13.90
2021,06,29,11,06,13.90
2021,06,29,11,07,13.90
2021,06,29,11,08,13.90
2021,06,29,11,09,13.90
2021,06,29,11,10,13.90
2021,06,29,11,11,13.90
2021,06,29,11,12,13.90
2021,06,29,11,13,14.00
2021,06,29,11,14,14.00
2021,06,29,11,15,13.90
2021,06,29,11,16,13.90
2021,06,29,11,17,13.90
2021,06,29,11,18,13.80
2021,06,29,11,19,13.80
2021,06,29,11,20,13.80
2021,06,29,11,21,13.80
2021,06,29,11,22,13.80
2021,06,29,11,23,13.80
2021,06,29,11,24,13.80
2021,06,29,11,25,13.80
2021,06,29,11,26,13.80
2021,06,29,11,27,13.80
2021,06,29,11,28,13.80
2021,06,29,11,29,13.80
2021,06,29,11,30,13.80
2021,06,29,11,31,13.80
2021,06,29,11,32,13.70
2021,06,29,11,33,13.70
2021,06,29,11,34,13.70
2021,06,29,11,35,13.70
2021,06,29,11,36,13.70
2021,06,29,11,37,13.60
2021,06,29,11,38,13.50
2021,06,29,11,39,13.50
2021,06,29,11,40,13.50
2021,06,29,11,41,13.50
2021,06,29,11,42,13.50
2021,06,29,11,43,13.40
2021,06,29,11,44,13.40
2021,06,29,11,45,13.40
2021,06,29,11,46,13.40
2021,06,29,11,47,13.40
2021,06,29,11,48,13.40
2021,06,29,11,49,13.40
2021,06,29,11,50,13.40
2021,06,29,11,51,13.40
2021,06,29,11,52,13.50
2021,06,29,11,53,13.50
2021,06,29,11,54,13.50
2021,06,29,11,55,13.50
2021,06,29,11,56,13.60
2021,06,29,11,57,13.60
2021,06,29,11,58,13.60
2021,06,29,11,59,13.70
2021,06,29,12,00,13.70
2021,06,29,12,01,13.70
2021,06,29,12,02,13.70
2021,06,29,12,03,13.80
2021,06,29,12,04,13.80
2021,06,29,12,05,13.80
2021,06,29,12,06,13.80
2021,06,29,12,07,13.80
2021,06,29,12,08,13.80
2021,06,29,12,09,13.80
2021,06,29,12,10,13.80
2021,06,29,12,11,13.90
2021,06,29,12,12,13.90
2021,06,29,12,13,14.00
2021,06,29,12,14,14.00
2021,06,29,12,15,14.10
2021,06,29,12,16,14.10
2021,06,29,12,17,14.10
2021,06,29,12,18,14.20
2021,06,29,12,19,14.20
2021,06,29,12,20,14.20
2021,06,29,12,21,14.20
2021,06,29,12,22,14.30
2021,06,29,12,23,14.30
2021,06,29,12,24,14.20
2021,06,29,12,25,14.20
2021,06,29,12,26,14.20
2021,06,29,12,27,14.30
2021,06,29,12,28,14.30
2021,06,29,12,29,14.30
2021,06,29,12,30,14.30
2021,06,29,12,31,14.30
2021,06,29,12,32,14.30
2021,06,29,12,33,14.40
2021,06,29,12,34,14.40
2021,06,29,12,35,14.40
2021,06,29,12,36,14.50
2021,06,29,12,37,14.60
2021,06,29,12,38,14.70
2021,06,29,12,39,14.80
2021,06,29,12,40,14.80
2021,06,29,12,41,14.90
2021,06,29,12,42,15.00
2021,06,29,12,43,15.10
2021,06,29,12,44,15.20
2021,06,29,12,45,15.30
2021,06,29,12,46,15.30
2021,06,29,12,47,15.40
2021,06,29,12,48,15.40
2021,06,29,12,49,15.40
2021,06,29,12,50,15.40
2021,06,29,12,51,15.40
2021,06,29,12,52,15.40
2021,06,29,12,53,15.50
2021,06,29,12,54,15.60
2021,06,29,12,55,15.60
2021,06,29,12,56,15.70
2021,06,29,12,57,15.80
2021,06,29,12,58,15.90
2021,06,29,12,59,15.90
2021,06,29,13,00,15.90
2021,06,29,13,01,15.90
2021,06,29,13,02,15.90
2021,06,29,13,03,15.90
2021,06,29,13,04,15.90
2021,06,29,13,05,15.90
2021,06,29,13,06,16.00
2021,06,29,13,07,16.00
2021,06,29,13,08,16.10
2021,06,29,13,09,16.20
2021,06,29,13,10,16.30
2021,06,29,13,11,16.30
2021,06,29,13,12,16.40
2021,06,29,13,13,16.40
2021,06,29,13,14,16.50
2021,06,29,13,15,16.50
2021,06,29,13,16,16.60
2021,06,29,13,17,16.70
2021,06,29,13,18,16.80
2021,06,29,13,19,16.90
2021,06,29,13,20,16.90
2021,06,29,13,21,17.00
2021,06,29,13,22,17.10
2021,06,29,13,23,17.10
2021,06,29,13,24,17.10
2021,06,29,13,25,17.10
2021,06,29,13,26,17.20
2021,06,29,13,27,17.30
2021,06,29,13,28,17.30
2021,06,29,13,29,17.40
2021,06,29,13,30,17.50
2021,06,29,13,31,17.50
2021,06,29,13,32,17.60
2021,06,29,13,33,17.70
2021,06,29,13,34,17.80
2021,06,29,13,35,17.80
2021,06,29,13,36,17.60
2021,06,29,13,37,17.40
2021,06,29,13,38,17.30
2021,06,29,13,39,17.30
2021,06,29,13,40,17.30
2021,06,29,13,41,17.40
2021,06,29,13,42,17.40
2021,06,29,13,43,17.50
2021,06,29,13,44,17.50
2021,06,29,13,45,17.60
2021,06,29,13,46,17.60
2021,06,29,13,47,17.60
2021,06,29,13,48,17.70
2021,06,29,13,49,17.60
2021,06,29,13,50,17.50
2021,06,29,13,51,17.50
2021,06,29,13,52,17.40
2021,06,29,13,53,17.30
2021,06,29,13,54,17.30
2021,06,29,13,55,17.30
2021,06,29,13,56,17.40
2021,06,29,13,57,17.40
2021,06,29,13,58,17.50
2021,06,29,13,59,17.60
2021,06,29,14,00,17.60
2021,06,29,14,01,17.60
2021,06,29,14,02,17.60
2021,06,29,14,03,17.60
2021,06,29,14,04,17.60
2021,06,29,14,05,17.70
2021,06,29,14,06,17.70
2021,06,29,14,07,17.80
2021,06,29,14,08,17.90
2021,06,29,14,09,18.00
2021,06,29,14,10,18.20
2021,06,29,14,11,18.30
2021,06,29,14,12,18.40
2021,06,29,14,13,18.60
2021,06,29,14,14,18.70
2021,06,29,14,15,18.90
2021,06,29,14,16,19.00
2021,06,29,14,17,19.10
2021,06,29,14,18,19.10
2021,06,29,14,19,19.20
2021,06,29,14,20,19.20
2021,06,29,14,21,19.20
2021,06,29,14,22,19.00
2021,06,29,14,23,18.90
2021,06,29,14,24,18.80
2021,06,29,14,25,18.70
2021,06,29,14,26,18.60
2021,06,29,14,27,18.50
2021,06,29,14,28,18.40
2021,06,29,14,29,18.40
2021,06,29,14,30,18.40
2021,06,29,14,31,18.40
2021,06,29,14,32,18.40
2021,06,29,14,33,18.50
2021,06,29,14,34,18.60
2021,06,29,14,35,18.80
2021,06,29,14,36,19.00
2021,06,29,14,37,19.20
2021,06,29,14,38,19.40
2021,06,29,14,39,20.00
2021,06,29,14,40,20.90
2021,06,29,14,41,22.10
2021,06,29,14,42,23.10
2021,06,29,14,43,24.10
2021,06,29,14,44,24.90
2021,06,29,14,45,25.60
2021,06,29,14,46,25.90
2021,06,29,14,47,26.30
2021,06,29,14,48,26.70
2021,06,29,14,49,27.10
2021,06,29,14,50,27.30
2021,06,29,14,51,27.50
2021,06,29,14,52,27.70
2021,06,29,14,53,27.80
2021,06,29,14,54,28.00
2021,06,29,14,55,28.10
2021,06,29,14,56,28.20
2021,06,29,14,57,28.30
2021,06,29,14,58,28.50
2021,06,29,14,59,28.60
2021,06,29,15,00,28.70
2021,06,29,15,01,28.70
2021,06,29,15,02,28.70
2021,06,29,15,03,28.70
2021,06,29,15,04,28.80
2021,06,29,15,05,28.80
2021,06,29,15,06,28.80
2021,06,29,15,07,28.80
2021,06,29,15,08,28.80
2021,06,29,15,09,28.80
2021,06,29,15,10,28.80
2021,06,29,15,11,28.90
2021,06,29,15,12,28.90
2021,06,29,15,13,28.90
2021,06,29,15,14,28.90
2021,06,29,15,15,28.90
2021,06,29,15,16,28.90
2021,06,29,15,17,28.90
2021,06,29,15,18,28.80
2021,06,29,15,19,28.80
2021,06,29,15,20,28.80
2021,06,29,15,21,28.70
2021,06,29,15,22,28.70
2021,06,29,15,23,28.70
2021,06,29,15,24,28.70
2021,06,29,15,25,28.70
2021,06,29,15,26,28.80
2021,06,29,15,27,28.70
2021,06,29,15,28,28.70
2021,06,29,15,29,28.70
2021,06,29,15,30,28.60
2021,06,29,15,31,28.60
2021,06,29,15,32,28.60
2021,06,29,15,33,28.60
2021,06,29,15,34,28.50
2021,06,29,15,35,28.60
2021,06,29,15,36,28.50
2021,06,29,15,37,28.50
2021,06,29,15,38,28.50
2021,06,29,15,39,28.60
2021,06,29,15,40,28.60
2021,06,29,15,41,28.60
2021,06,29,15,42,28.70
2021,06,29,15,43,28.70
2021,06,29,15,44,28.70
2021,06,29,15,45,28.70
2021,06,29,15,46,28.80
2021,06,29,15,47,28.80
2021,06,29,15,48,28.80
2021,06,29,15,49,28.80
2021,06,29,15,50,28.80
2021,06,29,15,51,28.80
2021,06,29,15,52,28.90
2021,06,29,15,53,28.80
2021,06,29,15,54,28.80
2021,06,29,15,55,28.80
2021,06,29,15,56,28.80
2021,06,29,15,57,28.90
2021,06,29,15,58,28.90
2021,06,29,15,59,28.80
2021,06,29,16,00,28.90
2021,06,29,16,01,28.90
2021,06,29,16,02,28.90
2021,06,29,16,03,28.80
2021,06,29,16,04,28.90
2021,06,29,16,05,28.90
2021,06,29,16,06,28.90
2021,06,29,16,07,28.90
2021,06,29,16,08,28.90
2021,06,29,16,09,28.90
2021,06,29,16,10,28.80
2021,06,29,16,11,28.80
2021,06,29,16,12,28.80
2021,06,29,16,13,28.70
2021,06,29,16,14,28.70
2021,06,29,16,15,28.70
2021,06,29,16,16,28.70
2021,06,29,16,17,28.60
2021,06,29,16,18,28.60
2021,06,29,16,19,28.60
2021,06,29,16,20,28.60
2021,06,29,16,21,28.60
2021,06,29,16,22,28.50
2021,06,29,16,23,28.50
2021,06,29,16,24,28.50
2021,06,29,16,25,28.40
2021,06,29,16,26,28.40
2021,06,29,16,27,28.40
2021,06,29,16,28,28.40
2021,06,29,16,29,28.40
2021,06,29,16,30,28.40
2021,06,29,16,31,28.30
2021,06,29,16,32,28.30
2021,06,29,16,33,28.30
2021,06,29,16,34,28.20
2021,06,29,16,35,28.10
2021,06,29,16,36,28.10
2021,06,29,16,37,28.10
2021,06,29,16,38,28.00
2021,06,29,16,39,28.00
2021,06,29,16,40,28.00
2021,06,29,16,41,28.00
2021,06,29,16,42,28.00
2021,06,29,16,43,28.10
2021,06,29,16,44,28.10
2021,06,29,16,45,28.10
2021,06,29,16,46,28.10
2021,06,29,16,47,28.10
2021,06,29,16,48,28.10
2021,06,29,16,49,28.00
2021,06,29,16,50,28.00
2021,06,29,16,51,28.00
2021,06,29,16,52,28.00
2021,06,29,16,53,28.00
2021,06,29,16,54,28.00
2021,06,29,16,55,28.00
2021,06,29,16,56,28.00
2021,06,29,16,57,28.00
2021,06,29,16,58,27.90
2021,06,29,16,59,27.80
2021,06,29,17,00,27.80
2021,06,29,17,01,27.80
2021,06,29,17,02,27.80
2021,06,29,17,03,27.80
2021,06,29,17,04,27.80
2021,06,29,17,05,27.80
2021,06,29,17,06,27.80
2021,06,29,17,07,27.90
2021,06,29,17,08,27.90
2021,06,29,17,09,27.90
2021,06,29,17,10,27.90
2021,06,29,17,11,27.90
2021,06,29,17,12,27.90
2021,06,29,17,13,27.90
2021,06,29,17,14,27.90
2021,06,29,17,15,27.90
2021,06,29,17,16,28.00
2021,06,29,17,17,28.00
2021,06,29,17,18,28.10
2021,06,29,17,19,28.10